Tracking 28766 objects as of 14-Apr-2024
HD Live streaming from Space Station
objects crossing your sky now

FENGYUN 1C DEB

Track FENGYUN 1C DEB now!
10-day predictions


NORAD ID: 37069
Int'l Code: 1999-025EFD
Perigee: 810.3 km
Apogee: 1,476.5 km
Inclination: 95.8 °
Period: 108.0 minutes
Semi major axis: 7514 km
RCS: 0.0144 m2 (small)
Launch date: May 10, 1999
Source: People's Republic of China (PRC)
Launch site: Taiyaun Space Center, China (TSC)

Note: This is SATELLITE DEBRIS
Your satellite tracking list
Your tracking list is empty




NASA's NSSDC Master Catalog

Two Line Element Set (TLE):
1 37069U 99025EFD 24103.86973082  .00002826  00000-0  33547-2 0  9995
2 37069  95.8485 326.5367 0443279  89.8855 275.3057 13.32792728795802
Source of the keplerian elements: AFSPC